Home   Weather   Singapore   Past weeks
Flag for Singapore

Past Weather in Singapore, Singapore — Yesterday and Last 2 Weeks

Now
84 °F

Passing clouds.


Feels Like: 92 °F
Forecast: 87 / 78 °F
Wind: No wind

Location: Singapore / Paya Lebar

Current Time: Oct 21, 2019 at 11:57:32 pm

Latest Report: Oct 21, 2019 at 11:00 pm


Visibility: N/A

Pressure: 29.80 "Hg

Humidity: 74%

Dew Point: 75 °F

Location of SingaporeLocation

Past Weather in Singapore — Graph

°F

Singapore Temperature Yesterday

Maximum temperature yesterday: 93 °F (at 1:00 pm)
Minimum temperature yesterday: 81 °F (at 6:00 am)
Average temperature yesterday: 86 °F

High & Low Weather Summary for the Past Weeks

 TemperatureHumidityPressure
High95 °F (Oct 11, 2:00 pm)94% (Oct 7, 2:35 pm)29.89 "Hg (Oct 7, 2:35 pm)
Low77 °F (Oct 7, 10:13 am)39% (Oct 14, 3:00 pm)29.71 "Hg (Oct 16, 4:00 pm)
Average85 °F75%29.81 "Hg
* Reported Oct 6 10:00 pm — Oct 21 10:00 pm, Singapore. Weather by CustomWeather, © 2019

Note: Actual official high and low records may vary slightly from our data, if they occured in-between our weather recording intervals... More about our weather records

Advertising

Singapore Weather History for the Previous 24 Hours

Scroll right to see more
 ConditionsComfort  
Time TempWeatherWind HumidityBarometerVisibility
10:00 pm
Mon, Oct 21
84 °FPassing clouds.1 mph74%29.80 "HgN/A
9:00 pm84 °FPassing clouds.2 mph74%29.80 "HgN/A
8:00 pm86 °FPassing clouds.2 mph70%29.77 "HgN/A
7:00 pm86 °FPassing clouds.2 mph70%29.74 "HgN/A
6:00 pm86 °FPartly sunny.5 mph70%29.74 "HgN/A
5:00 pm86 °FPartly sunny.6 mph70%29.71 "HgN/A
4:00 pm86 °FScattered showers. Partly sunny.7 mph75%29.71 "HgN/A
3:00 pm86 °FScattered showers. Scattered clouds.15 mph75%29.71 "HgN/A
2:00 pm88 °FScattered showers. Scattered clouds.13 mph75%29.74 "HgN/A
1:00 pm90 °FScattered showers. Scattered clouds.8 mph67%29.77 "HgN/A
12:00 pm90 °FScattered showers. Scattered clouds.3 mph67%29.80 "HgN/A
11:00 am88 °FScattered showers. Scattered clouds.1 mph70%29.80 "HgN/A
10:00 am88 °FPartly sunny.2 mph70%29.83 "HgN/A
9:00 am86 °FPartly sunny.1 mph75%29.83 "HgN/A
8:00 am82 °FPartly sunny.3 mph84%29.80 "HgN/A
7:00 am82 °FScattered showers. Partly sunny.1 mph84%29.77 "Hg5 mi
6:00 am82 °FPassing clouds.No wind84%29.77 "HgN/A
5:00 am82 °FPassing clouds.No wind84%29.74 "HgN/A
4:00 am82 °FPassing clouds.No wind84%29.74 "HgN/A
3:00 am82 °FPassing clouds.No wind84%29.77 "HgN/A
2:00 am82 °FPassing clouds.1 mph84%29.77 "HgN/A
1:00 am84 °FPassing clouds.2 mph74%29.80 "HgN/A
12:00 am84 °FPassing clouds.2 mph84%29.80 "HgN/A
11:30 pm
Sun, Oct 20
86 °FThunderstorms. Passing clouds.5 mph79%29.80 "Hg5 mi
11:00 pm86 °FPassing clouds.2 mph75%29.83 "HgN/A
Weather by CustomWeather, © 2019

See weather overview